DELTA 1 DEB, 29181

Orbit data source: Space-Track

DELTA 1 DEB, 29181 is space debris in LEO originally from a launch on Thu, 11 Jan 1968 UTC launched from the Air Force Western Test Range (AFWTR). Debris objects in space refer to the collection of defunct objects orbiting the Earth. Examples of debris include non-operational satellites, rocket bodies, and fragments generated from explosions, collisions, or faulty payload assembly.

Loading next visibility...
DELTA 1 DEB details
Identifier
29181, 1968-002E
Orbit
LEO
Last TLE update3 weeks ago
Origin
Flag of USGSFC (US)
ManufacturerUnknown
MissionSpacecraft
Bus & MotorUnknown
MassUnknown
Launch date (UTC)
1968-01-11 (57 years ago)
Launch vehicleUnknown
Launch site
Air Force Western Test Range (AFWTR)
Object type
Payload
Rocket body
Debris
Shape & HBRUnknown
Radar Cross SectionSmall (<0.1 m²)

Expand to show TLE details & history

TLE from 3 weeks ago
0 DELTA 1 DEB
1 29181U 68002E   24335.43289584  .00000390  00000-0  14138-2 0  9998
2 29181 105.7966 229.5570 0305534  45.9227 316.6574 12.91664040911226
Epoch: 2024-11-30T10:23Z
Definitive object data (Epoch: 2024-11-30T10:23:22.2Z)
Latitude-0.00004°
Longitude3.92898°
Altitude1,130.336 km
Speed7.367 km/s
True Right ascension15h 18m 13s
True Declination0° 00' 00"
Sunlit
Object was in daylight at TLE epoch
Visualization TLE readout
Latitude-63.43281°
Longitude68.10943°
Altitude1,268.914 km
Speed7.244 km/s
Apparent Right ascension21h 23m 45s
Apparent Declination-54° 45' 56"
Sunlit
Object is in daylight
Visualization observer readout
Local Sidereal Time10:38:22
Azimuth146.208° SSE
Elevation-70.623°
Doppler factor1
Orbital elements
Apogee altitude1,527.067 km
Perigee altitude1,058.327 km
Semi-major axis7,670.834 km
Eccentricity0.0305534
Inclination105.7966°
RAAN229.557°
Arg. of periapsis45.9227°
True anomaly314.18654°
Mean anomaly316.6574°
Eccentric anomaly315.42885°
Mean motion3.23057 °/min
BSTAR0.0014138
Orbital period111.44 mins
Loading maneuver chart data...
Loading historical data...
Loading historical data...
Loading historical data...
Loading historical data...
Loading historical data...
Loading historical data...
Loading historical data...

DELTA 1 DEB Visibility forecast

Observer location: undefined°, undefined

Span
Click to sort rows by Start time (UTC) header in descending order
Start Az.
Max El. time (UTC)
Max El. Az.
Max El.
End time (UTC)
End Az.
9 mins2024-12-21 15:50:42.183Z95.735° ESE2024-12-21 15:54:42.183Z52.103° ENE22.488°2024-12-21 15:59:42.183Z1.725° NNE
11 mins2024-12-21 17:38:42.183Z172.163° S2024-12-21 17:43:42.183Z270.578° WNW41.805°2024-12-21 17:49:42.183Z331.308° NNW
9 mins2024-12-22 05:20:42.183Z67.59° E2024-12-22 05:24:42.183Z101.939° ESE18.69°2024-12-22 05:29:42.183Z139.978° SSE
14 mins2024-12-22 07:07:42.183Z22.33° NNE2024-12-22 07:13:42.183Z357.612° N44.95°2024-12-22 07:21:42.183Z205.928° SW
10 mins2024-12-22 08:57:42.183Z349.537° N2024-12-22 09:01:42.183Z313.475° NW21.157°2024-12-22 09:07:42.183Z265.511° W
|